Theta_e
327 322 324 328 325 321 322 321 320 321 323 324 326 327 326 328 329 328 327 328 328 330 328 327 328 325 324 325 326 325 320 320 320 319 317 317 318 318 320 323 327 331 332
333 324 324 330 326 322 322 322 321 321 322 322 326 326 328 328 328 326 327 328 329 328 327 328 328 325 321 321 326 326 325 323 321 317 316 317 319 320 319 321 322 328 331
342 329 325 332 327 321 320 321 321 320 320 323 326 327 329 328 329 328 329 328 329 330 328 326 325 322 322 322 323 326 325 324 321 319 318 319 318 319 319 320 321 322 330
348 339 327 331 329 326 322 321 321 320 321 326 329 330 332 331 329 330 329 328 329 326 325 325 324 324 322 321 323 323 323 322 319 318 318 319 319 319 319 319 320 320 323
348 346 330 327 333 333 324 322 322 320 322 327 330 331 332 330 329 330 329 329 327 327 326 325 325 322 322 323 324 324 324 323 319 319 320 320 319 319 318 319 319 319 320
349 346 333 330 336 335 327 322 321 321 325 330 330 329 331 327 328 329 327 326 326 325 325 325 325 321 322 323 323 323 323 322 321 321 321 319 318 319 319 320 320 322 322
348 344 339 336 337 336 330 321 322 323 327 332 332 330 326 328 328 327 328 327 326 324 323 323 324 322 323 322 321 320 321 321 321 320 320 318 317 317 319 320 320 320 319
347 342 339 338 336 336 330 320 324 327 329 331 331 332 329 328 327 326 327 328 326 323 323 321 322 321 323 323 321 321 322 322 321 320 318 318 317 317 319 320 321 320 320
346 338 339 338 337 335 332 321 327 331 331 332 331 333 331 329 327 326 327 326 326 323 323 323 323 323 323 321 322 322 322 322 320 319 317 317 317 317 319 319 320 321 321
345 342 339 338 336 335 332 326 329 331 332 334 334 333 329 330 327 327 326 327 324 322 323 323 323 322 319 321 322 322 322 321 319 320 319 318 316 317 319 320 321 321 321
345 340 338 336 336 335 331 329 330 334 335 334 334 330 323 324 328 325 324 325 324 323 322 321 317 317 319 320 322 322 319 318 320 321 318 317 317 317 319 320 322 325 325
340 336 335 337 336 335 333 334 335 335 336 334 334 330 325 327 327 325 325 324 322 322 317 317 319 320 321 321 322 319 318 319 321 320 319 318 316 317 320 320 329 327 326
339 339 338 331 337 338 336 337 335 336 335 333 331 325 325 327 327 326 324 321 322 318 316 318 319 320 321 321 320 317 318 318 320 320 319 318 316 317 320 320 325 326 326
338 334 330 329 330 328 326 334 336 333 331 329 327 326 326 326 325 323 321 322 318 316 316 317 320 321 320 319 317 316 317 317 319 319 319 319 316 317 319 320 320 326 327
326 324 326 329 324 328 331 331 333 330 329 326 323 325 325 323 320 320 319 318 316 314 314 318 321 319 318 316 316 316 317 317 318 319 319 319 317 316 319 319 320 321 324
324 322 322 327 326 330 332 331 330 330 327 325 325 324 321 321 320 318 318 315 314 314 317 318 317 316 314 315 316 316 316 316 317 319 320 320 319 316 317 318 319 320 320
322 325 326 331 334 333 328 329 328 326 325 324 324 323 322 320 317 316 316 311 313 316 317 316 314 314 313 314 313 312 312 313 315 317 318 318 318 318 316 317 319 319 320
326 327 329 330 328 328 327 327 325 324 324 323 322 320 319 318 316 314 314 315 316 316 315 314 313 312 312 311 309 308 308 309 309 312 315 315 316 317 318 318 320 319 318
328 326 323 324 328 327 325 324 325 324 323 322 319 317 316 315 314 314 313 311 313 313 312 312 311 310 310 309 307 305 305 305 305 307 310 312 313 315 316 318 318 319 320
321 320 323 326 326 324 324 324 321 320 319 316 315 314 313 311 309 310 309 309 310 310 309 309 308 308 307 304 302 301 301 302 302 303 304 306 308 309 312 316 318 319 320
324 325 325 323 323 324 323 321 317 315 314 315 316 314 312 310 305 305 307 308 307 307 307 306 305 305 305 303 297 295 297 300 300 300 301 301 301 302 306 312 315 317 318
326 326 325 323 322 323 320 317 316 316 315 314 315 313 311 309 306 304 306 306 306 305 305 304 302 300 300 295 293 295 297 299 298 299 299 299 299 300 302 304 312 313 315
324 324 323 323 323 321 320 318 318 317 315 315 313 312 310 307 306 304 306 305 305 304 304 301 297 295 294 292 293 295 296 296 296 298 298 298 299 299 299 300 301 307 309
323 323 322 321 321 320 319 315 313 313 314 313 312 310 308 307 305 304 303 304 303 303 301 297 296 293 292 292 293 294 295 296 296 296 296 297 298 298 298 299 299 300 300
319 318 316 314 315 315 314 314 311 310 310 310 309 308 307 306 304 303 302 301 301 298 297 296 296 295 293 292 293 293 294 294 294 295 295 295 295 297 297 298 298 299 299
316 315 316 315 315 313 312 312 310 310 309 308 307 307 306 305 304 303 301 300 300 298 297 297 296 295 294 293 293 292 292 293 293 294 295 294 294 295 296 297 296 297 298
Wind_Speed
35 31 26 20 16 11 9 9 9 9 9 9 9 9 9 9 9 12 12 12 12 13 13 14 15 16 18 20 20 20 19 21 29 34 29 35 38 36 28 26 28 27 33
37 34 29 23 17 11 9 9 7 7 7 8 9 8 9 9 10 10 9 10 12 15 14 14 17 18 20 21 22 23 22 22 27 33 35 37 38 36 36 33 28 27 29
38 34 32 28 19 12 12 11 8 8 8 10 9 8 8 9 9 9 11 13 14 16 14 16 16 18 22 22 23 24 23 24 26 32 36 36 39 39 42 39 36 30 29
40 33 35 29 20 14 12 10 11 10 10 10 10 9 10 12 13 11 13 14 14 13 17 15 17 20 20 22 23 24 24 25 28 32 37 40 43 43 43 42 42 35 32
43 36 37 28 22 18 14 12 12 13 12 11 11 11 12 14 14 14 14 16 16 14 15 17 20 20 18 18 22 23 24 26 28 32 36 40 43 47 46 43 46 44 40
44 40 34 27 26 22 17 14 14 17 14 12 12 12 15 15 14 15 14 17 16 17 20 22 24 20 17 17 18 20 21 26 30 31 34 35 46 42 43 47 45 39 41
45 39 33 29 27 25 20 17 18 20 16 16 15 13 14 14 14 15 15 16 18 20 22 22 21 20 17 18 20 21 23 23 26 29 31 34 40 46 47 43 45 44 42
43 35 35 30 26 30 25 21 24 21 19 18 16 18 16 15 16 17 18 18 18 22 20 17 19 20 18 20 24 23 24 27 27 22 28 32 42 44 44 42 45 48 48
42 32 37 34 32 33 29 24 23 21 21 21 20 19 19 22 22 19 17 20 22 25 23 22 18 18 20 23 22 24 28 27 26 21 27 32 47 44 50 46 49 45 41
41 31 36 34 34 36 28 24 24 22 22 21 23 21 17 22 24 20 20 20 19 22 24 17 17 20 22 21 22 27 31 31 27 26 32 38 50 52 50 41 38 41 40
30 30 33 36 34 31 23 24 24 24 24 26 28 16 16 18 21 21 21 20 21 23 20 19 22 20 18 20 24 27 30 29 26 26 31 38 50 57 59 47 34 27 36
27 30 32 30 31 31 22 23 23 25 28 27 25 21 13 17 21 21 19 19 19 16 19 19 18 14 17 20 21 26 26 24 22 22 28 38 50 58 58 52 15 15 22
28 19 23 19 28 26 15 20 26 28 25 25 22 16 15 19 21 18 17 17 15 19 18 18 17 17 17 17 22 25 22 18 18 20 23 31 44 51 53 48 14 5 10
11 10 14 28 20 22 18 26 21 19 18 18 15 12 13 17 15 17 17 15 17 16 17 17 14 13 16 18 21 17 14 15 17 15 19 25 37 47 53 47 39 2 4
8 6 4 26 14 18 22 20 17 16 15 14 11 11 12 14 15 16 17 17 14 14 15 12 12 12 16 20 12 11 12 12 14 14 16 21 28 39 44 50 43 40 19
12 5 17 24 24 21 16 13 16 17 12 11 10 11 12 14 14 13 13 13 13 13 10 9 10 14 14 10 10 9 10 12 14 15 16 19 24 30 35 43 44 43 43
12 11 19 18 18 17 16 14 11 10 8 10 13 12 13 12 9 10 11 8 12 11 9 10 11 10 9 10 7 8 10 12 12 12 14 18 20 23 27 35 40 44 41
12 15 14 14 14 13 11 9 8 10 11 11 13 10 9 10 8 5 6 6 9 10 10 10 5 5 6 6 7 7 8 11 12 13 13 15 19 21 22 27 32 31 37
9 12 14 15 14 11 11 12 10 11 10 11 9 7 8 9 12 10 10 10 13 12 8 4 3 4 6 7 8 9 10 11 12 13 14 15 18 19 18 17 21 28 27
10 20 16 16 15 13 11 5 6 9 10 10 6 2 6 12 13 11 7 6 5 4 2 3 4 5 6 8 10 9 8 7 8 10 12 14 15 16 17 18 16 17 19
13 14 12 12 11 10 8 7 6 7 4 4 5 5 6 8 7 6 3 3 3 2 3 6 8 10 10 11 10 8 4 5 7 8 10 12 15 16 16 15 16 15 16
13 13 16 15 13 12 9 8 7 6 5 7 10 8 5 6 7 6 6 4 3 2 5 11 13 11 8 7 5 5 4 5 6 8 10 12 14 16 16 17 14 15 15
11 13 15 16 13 10 10 8 9 10 11 13 11 9 7 3 4 7 6 7 5 5 8 11 8 5 3 2 4 5 5 6 9 8 9 10 11 14 15 17 18 16 17
14 13 12 10 10 10 10 10 9 10 10 11 13 10 9 6 3 4 3 6 5 6 10 6 4 4 3 3 3 4 4 6 7 7 7 7 9 9 11 13 16 18 18
9 7 6 6 6 7 8 10 8 8 8 10 11 12 10 7 5 3 2 2 5 6 4 5 5 3 1 1 1 1 2 4 5 7 6 6 6 7 8 10 12 13 15
8 7 11 14 14 13 13 15 14 13 11 12 12 12 10 9 8 8 8 8 8 8 4 3 6 5 3 4 4 2 3 4 5 6 6 5 6 6 5 8 10 10 12
Wind_Direction
204 213 213 212 210 200 203 214 224 228 239 249 261 275 281 286 296 297 291 293 296 294 294 288 291 296 302 300 299 297 299 317 311 313 323 334 333 331 321 314 294 272 264
210 217 213 215 214 209 216 229 239 256 261 271 269 272 286 298 301 301 298 297 296 301 296 289 295 291 299 303 298 293 292 303 311 310 316 327 333 337 324 320 312 283 271
213 221 211 214 210 213 224 229 235 242 241 247 252 270 293 305 303 308 296 299 296 294 302 293 290 292 300 304 302 294 293 299 303 304 313 319 323 330 328 320 318 303 272
217 220 212 213 212 217 222 227 226 225 235 245 255 276 289 295 296 297 300 294 300 296 295 299 303 304 305 298 297 295 294 301 299 301 308 317 318 326 319 316 311 310 287
215 223 216 216 214 217 225 225 223 224 234 249 260 279 288 293 293 295 296 292 294 300 296 298 300 301 302 298 298 297 293 293 301 302 306 315 316 314 313 313 311 305 302
221 221 215 220 215 219 227 221 224 230 231 244 260 280 283 289 294 292 290 295 292 299 299 299 299 300 300 299 297 296 296 294 296 298 305 311 321 317 315 310 301 291 289
219 213 214 208 218 224 228 227 232 237 238 246 256 274 280 291 296 291 288 289 297 306 307 296 291 292 298 300 299 298 297 295 300 301 302 309 324 321 311 303 298 281 279
217 220 214 215 222 226 230 231 236 240 245 251 259 267 277 297 290 300 296 291 294 304 305 310 287 290 295 300 303 300 301 301 304 300 309 313 327 320 313 302 296 287 274
214 222 220 219 224 229 233 239 239 245 252 251 258 270 284 288 296 293 291 289 292 301 301 297 293 287 295 300 304 304 305 308 306 293 318 316 333 324 319 313 292 280 259
218 236 220 223 232 230 238 246 246 248 258 257 255 263 293 299 293 290 293 289 294 305 300 297 288 294 299 301 305 311 311 312 308 300 318 326 334 334 332 318 300 276 249
228 220 223 229 242 239 249 256 255 251 253 256 255 277 298 276 284 285 291 292 297 298 289 300 303 303 302 305 309 312 314 313 309 307 322 337 339 337 336 328 312 252 238
211 213 227 249 253 243 252 260 256 256 252 261 262 275 295 280 272 282 293 296 298 297 304 306 305 301 299 302 310 318 318 313 308 310 333 340 345 344 345 348 294 252 233
212 212 219 220 268 263 269 277 264 258 265 272 284 280 269 265 270 280 283 289 288 303 300 296 292 289 296 303 310 320 320 321 325 328 340 349 354 352 354 359 6 303 232
171 179 256 273 263 269 290 267 255 269 281 285 268 258 263 263 269 276 281 274 288 285 285 288 281 285 293 303 318 325 337 338 341 341 349 357 3 1 9 5 25 42 270
73 25 248 240 242 254 249 261 269 276 266 266 273 271 261 267 275 278 280 281 276 277 283 281 268 280 298 311 322 340 338 340 359 356 358 2 8 8 10 18 19 39 63
306 212 183 237 261 263 259 262 266 260 254 271 268 266 270 284 289 289 291 281 266 265 267 251 280 306 320 329 337 351 354 360 12 10 9 6 15 15 10 16 29 32 36
254 228 254 257 261 257 261 267 262 255 259 263 269 274 279 280 290 293 290 287 258 258 253 279 303 317 328 329 348 6 9 12 9 13 12 15 12 20 19 16 23 38 36
253 251 248 253 266 265 264 256 258 267 269 260 257 253 262 273 287 288 305 290 249 248 264 283 280 302 312 324 339 344 356 360 7 8 5 12 17 21 21 21 25 34 39
257 259 266 266 268 250 256 259 265 259 249 240 243 262 283 299 295 289 297 277 263 265 266 230 248 281 309 325 333 339 347 357 1 2 7 11 16 19 26 26 27 34 44
251 253 256 256 255 268 260 234 249 219 215 237 245 297 295 307 295 293 282 267 243 217 218 268 285 295 313 325 329 325 327 347 3 10 15 16 21 23 27 35 36 40 46
233 230 240 239 251 246 233 275 236 218 229 263 230 237 288 326 330 296 245 206 213 239 305 325 327 323 327 331 330 336 338 11 27 32 32 30 31 34 35 39 48 50 49
227 220 231 234 223 217 239 228 215 224 271 273 233 242 260 316 344 324 192 189 224 214 303 321 323 324 330 338 1 30 65 50 53 59 54 46 39 38 40 45 53 54 58
232 213 213 212 216 236 226 228 228 243 265 252 263 254 239 248 337 357 178 183 216 254 301 316 324 332 1 46 55 63 71 69 61 59 52 54 48 43 43 46 47 52 55
214 208 215 225 238 238 223 226 258 276 250 236 264 243 225 218 276 357 202 219 217 281 309 321 346 17 63 81 77 72 58 55 48 36 33 33 37 36 44 50 52 51 56
186 219 240 231 212 229 248 243 253 240 242 246 254 229 222 218 212 231 223 240 270 296 317 358 6 11 65 78 82 23 347 1 26 26 24 26 27 34 35 47 50 55 57
204 223 235 252 248 239 250 245 236 231 256 254 239 225 234 241 230 220 219 229 273 289 317 1 17 29 56 62 35 347 308 313 345 5 19 32 40 60 51 49 53 57 63